Regional Weather Roundup
Issued by NWS Sterling, VA

Home | Current Version | Previous Version | Text Only | Print | Product List | Glossary Off
Versions: 1 2 3 4 5 6 7 8 9 10 11 12 13 14 15 16 17 18 19 20 21 22 23 24 25 26 27

000
ASUS41 KLWX 040210
RWRLWX

REGIONAL WEATHER ROUNDUP
NATIONAL WEATHER SERVICE BALTIMORE MD/WASHINGTON DC
900 PM EST SAT DEC 03 2016

Note: "FAIR" indicates few or no clouds below 12,000 feet
with no significant weather and/or obstructions to visibility.
 TC=TEMPERATURE CELSIUS

 * =Non NWS site. Station does not report precipitation (e.g. rain,
    snow, etc.), thunder, or fog.

DCZ001-MDZ009-015-VAZ040>042-051-053>054-040300-
WASHINGTON METRO

CITY           SKY/WX    TMP DP  RH WIND       PRES   REMARKS
WASHINGTON NAT CLOUDY    43  29  57 NW15      30.26S
DULLES         CLOUDY    40  27  59 W9        30.27R
ANDREWS AFB    CLOUDY    41  28  60 NW13      30.23S
FT BELVOIR     CLOUDY    42  28  57 NW7       30.27R
QUANTICO       PTCLDY    42  27  55 N12       30.29R
COLLEGE PARK*  CLOUDY    41  28  60 W6        30.24F
LEESBURG*      CLOUDY    41  32  70 NW10      30.28S
MANASSAS*      MOCLDY    41  28  60 NW8       30.28S
GAITHERSBURG*  CLOUDY    39  27  60 W10       30.28R

$$

MDZ006>007-011-014-040300-
BALTIMORE METRO

CITY           SKY/WX    TMP DP  RH WIND       PRES   REMARKS
BWI AIRPORT    MOCLDY    41  30  65 W12       30.23S
MD SCIENCE CTR   N/A     43  28  55 MISG      30.23R
MARTIN STATE   MOCLDY    45  34  65 W6        30.24R
ANNAPOLIS      PTCLDY    44  30  57 NW8       30.24S
FORT MEADE*    MOCLDY    37  30  75 W7        30.26S

$$

MDZ012-015-019>023-040300-
MARYLAND EASTERN SHORE

CITY           SKY/WX    TMP DP  RH WIND       PRES   REMARKS
OCEAN CITY     MOCLDY    42  30  62 W6        30.21S
SALISBURY      PTCLDY    42  31  64 W7        30.22R
BAY BRIDGE AP* PTCLDY    43  32  65 W10       30.23S
CAMBRIDGE*     CLOUDY    43  32  65 W5        30.23R
EASTON*        PTCLDY    43  30  61 MISG      30.26S

$$

MDZ017>025-040300-
SOUTHERN MARYLAND

CITY           SKY/WX    TMP DP  RH WIND       PRES   REMARKS
PATUXENT RIVER PTCLDY    42  28  57 W12       30.25R
ST INIGOES     PTCLDY    43  30  60 NW9       30.25R
LEONARDTOWN*   PTCLDY    41  28  60 W6        30.27R

$$

MDZ003>005-040300-
NORTH CENTRAL MARYLAND

CITY           SKY/WX    TMP DP  RH WIND       PRES   REMARKS
FREDERICK*     NOT AVBL
HAGERSTOWN APT CLOUDY    41  28  60 W6        30.24R
WESTMINSTER*   CLOUDY    39  28  65 W10G16    30.20S

$$

MDZ501>502-040300-
WESTERN MARYLAND

CITY           SKY/WX    TMP DP  RH WIND       PRES   REMARKS
OAKLAND*       CLOUDY    27  25  93 W6        30.21R
CUMBERLAND*    NOT AVBL

$$

VAZ025>031-040300-
SHENANDOAH VALLEY

CITY           SKY/WX    TMP DP  RH WIND       PRES   REMARKS
WINCHESTER*    CLOUDY    36  27  69 NW12G20   30.28R WCI  27
FRONT ROYAL*   CLOUDY    37  28  70 N5        30.28R
LURAY*         FAIR      36  32  87 N5        30.27R
NEW MARKET*    FAIR      34  26  71 N3        30.27S
STAUNTON*      PTCLDY    35  27  73 N6        30.28R
WAYNESBORO*    FAIR      35  26  70 N3        30.25R

$$

WVZ021-048>050-054>055-040300-
EASTERN WEST VIRGINIA PANHANDLE

CITY           SKY/WX    TMP DP  RH WIND       PRES   REMARKS
MARTINSBURG    CLOUDY    39  27  62 W10       30.27R
PETERSBURG*    CLOUDY    33  30  89 W3        30.30R

$$

VAZ036>039-050-040300-
CENTRAL FOOTHILLS

CITY           SKY/WX    TMP DP  RH WIND       PRES   REMARKS
CHARLOTTESVILL PTCLDY    40  28  62 NE5       30.25R
CULPEPER*      CLOUDY    37  29  71 CALM      30.29R
ORANGE*          N/A     36  30  80 CALM      30.28S
GORDONSVILLE*  FAIR      37  29  73 CALM      30.26R
WARRENTON*     FAIR      40  24  52 N5        30.28R

$$

VAZ055>057-040300-
NORTH AND CENTRAL PIEDMONT

CITY           SKY/WX    TMP DP  RH WIND       PRES   REMARKS
FREDERICKSBRG* PTCLDY    41  30  65 N8        30.28R
STAFFORD*      PTCLDY    39  29  66 N8        30.32S

$$

NCZ024-NYZ072-PAZ021-071-VAZ022-071-040300-
OTHER REGIONAL OBSERVATIONS

CITY           SKY/WX    TMP DP  RH WIND       PRES   REMARKS
NEW YORK CITY  MOCLDY    43  27  53 NW10G20   30.13S
PHILADELPHIA   CLOUDY    47  30  51 W8        30.18S
PITTSBURGH     CLOUDY    37  28  70 W5        30.28R
ROANOKE        MOCLDY    39  27  62 NW6       30.28R
RALEIGH        CLOUDY    46  30  53 CALM      30.27R

$$

ANZ530>537-040300-
MARINE OBSERVATIONS

STATION/POSITION TIME  TEMP    WIND        PRES
                       AIR SEA DIR/SP/G
                 (UTC) (F)     (DEG/KT/KT) (MB)
THOMAS PT LIGHT  0200   43 49  280/ 13/ 15   N/A
BALT KEY BRIDGE  0148   42     260/ 13/ 16 1023.5S
COVE POINT       0148   42     320/  9/ 15 1024.7R
LEWISETTA        0148   45 50  330/ 10/ 13 1024.3R
SOLOMONS ISLAND  0148   43 51  300/  7/ 11   N/A
PINEY POINT      0148          350/ 19/ 21   N/A

$$





USA.gov is the U.S. government's official web portal to all federal, state and local government web resources and services.